Darstellungsparameter: Aktuell verwendete Einstellungen:
Skalierung der Graphiken ... ?
xyx+y,   Skalierungsfaktor:      Skalierung: Modus: x, Faktor: 1
Darstellungszeitraum ... ?
Vom - - bis: - -   Zeitraum: 23.02.2019 - 23.02.2019
Min/Max/Avg-Anzeige ... ?
Zeige MMA aktuell
Zeige MMA Monat
Zeige MMA alles
Zeige --A aktuell
Zeige --A Monat
Zeige --A alles
Keine MMA-Anzeige
MMA:
Keine MMA-Graphiken
MMA-Basis: 23.02.2019 - 23.02.2019
Quicknavigation für Darstellung... ?
Tage:      1T, 2T, 3T, 5T -1T -2T -3T -5T +1T +2T +3T +5T
Wochen: 1W, 2W, 3W -1W -2W -3W +1W +2W +3W
Monate: 1M, 3M, 6M -1M -3M -6M +1M +3M +6M
Jahre:    1J, 3J, 5J, 10J -1J -3J -5J -10J +1J +3J +5J +10J
Nutze für die Darstellung ... ?
Originaldaten oder Mittelwerte auf ...
Stundenbasis Tagesbasis Wochenbasis
Monatsbasis Jahresbasis      Datenbasis: Original-Daten
Darstellen als:
Statistik (Auto) Statistik J:M      Darstellung:
Zur Graphik,    zurück zur Übersicht aller Sensoren.
 
Tabellarische Datenbersicht: ?
 
Sensor: Nr:Datum:Temp:Feuchte:Taupunkt:
Aussen-T/F 1 23-02-2019 00:00:00 5.7 C 92 % 4.5 C
2 23-02-2019 00:05:00 5.7 C 92 % 4.5 C
3 23-02-2019 00:10:00 5.6 C 92 % 4.41 C
4 23-02-2019 00:15:00 5.4 C 92 % 4.21 C
5 23-02-2019 00:20:00 5.3 C 92 % 4.11 C
6 23-02-2019 00:25:00 5.3 C 92 % 4.11 C
7 23-02-2019 00:30:00 5.2 C 92 % 4.01 C
8 23-02-2019 00:35:00 5.2 C 92 % 4.01 C
9 23-02-2019 00:40:00 5.2 C 93 % 4.16 C
10 23-02-2019 00:45:00 5.1 C 93 % 4.06 C
11 23-02-2019 00:50:00 5.1 C 93 % 4.06 C
12 23-02-2019 00:55:00 5 C 93 % 3.96 C
13 23-02-2019 01:00:00 4.9 C 93 % 3.87 C
14 23-02-2019 01:05:00 4.8 C 93 % 3.77 C
15 23-02-2019 01:10:00 4.8 C 93 % 3.77 C
16 23-02-2019 01:15:00 4.7 C 93 % 3.67 C
17 23-02-2019 01:20:00 4.7 C 93 % 3.67 C
18 23-02-2019 01:25:00 4.6 C 93 % 3.57 C
19 23-02-2019 01:30:00 4.4 C 93 % 3.37 C
20 23-02-2019 01:35:00 4.4 C 93 % 3.37 C
21 23-02-2019 01:40:00 4.4 C 93 % 3.37 C
22 23-02-2019 01:45:00 4.3 C 94 % 3.42 C
23 23-02-2019 01:50:00 4.3 C 94 % 3.42 C
24 23-02-2019 01:55:00 4.3 C 94 % 3.42 C
25 23-02-2019 02:00:00 4.3 C 94 % 3.42 C
Sensor: Nr:Datum:Temp:Feuchte:Taupunkt:
Aussen-T/F 26 23-02-2019 02:05:00 4.3 C 94 % 3.42 C
27 23-02-2019 02:10:00 4.4 C 94 % 3.52 C
28 23-02-2019 02:15:00 4.4 C 94 % 3.52 C
29 23-02-2019 02:20:00 4.3 C 94 % 3.42 C
30 23-02-2019 02:25:00 4.3 C 94 % 3.42 C
31 23-02-2019 02:30:00 4.2 C 94 % 3.32 C
32 23-02-2019 02:35:00 4.1 C 94 % 3.22 C
33 23-02-2019 02:40:00 4 C 94 % 3.12 C
34 23-02-2019 02:45:00 4 C 94 % 3.12 C
35 23-02-2019 02:50:00 4 C 94 % 3.12 C
36 23-02-2019 02:55:00 3.9 C 94 % 3.02 C
37 23-02-2019 03:00:00 3.8 C 94 % 2.93 C
38 23-02-2019 03:05:00 3.8 C 95 % 3.07 C
39 23-02-2019 03:10:00 3.8 C 95 % 3.07 C
40 23-02-2019 03:15:00 3.8 C 95 % 3.07 C
41 23-02-2019 03:20:00 3.9 C 95 % 3.17 C
42 23-02-2019 03:25:00 3.8 C 95 % 3.07 C
43 23-02-2019 03:30:00 3.7 C 95 % 2.98 C
44 23-02-2019 03:35:00 3.7 C 95 % 2.98 C
45 23-02-2019 03:40:00 3.8 C 95 % 3.07 C
46 23-02-2019 03:45:00 3.8 C 95 % 3.07 C
47 23-02-2019 03:50:00 3.9 C 95 % 3.17 C
48 23-02-2019 03:55:00 4 C 95 % 3.27 C
49 23-02-2019 04:00:00 4.1 C 95 % 3.37 C
50 23-02-2019 04:05:00 4.2 C 95 % 3.47 C
Sensor: Nr:Datum:Temp:Feuchte:Taupunkt:
Aussen-T/F 51 23-02-2019 04:10:00 4.2 C 95 % 3.47 C
52 23-02-2019 04:15:00 4.3 C 95 % 3.57 C
53 23-02-2019 04:20:00 4.3 C 95 % 3.57 C
54 23-02-2019 04:25:00 4.3 C 95 % 3.57 C
55 23-02-2019 04:30:00 4.4 C 95 % 3.67 C
56 23-02-2019 04:35:00 4.3 C 95 % 3.57 C
57 23-02-2019 04:40:00 4.3 C 95 % 3.57 C
58 23-02-2019 04:45:00 4.3 C 95 % 3.57 C
59 23-02-2019 04:50:00 4.3 C 95 % 3.57 C
60 23-02-2019 04:55:00 4.2 C 95 % 3.47 C
61 23-02-2019 05:00:00 4.2 C 95 % 3.47 C
62 23-02-2019 05:05:00 4.2 C 95 % 3.47 C
63 23-02-2019 05:10:00 4.3 C 95 % 3.57 C
64 23-02-2019 05:15:00 4.3 C 95 % 3.57 C
65 23-02-2019 05:20:00 4.5 C 94 % 3.62 C
66 23-02-2019 05:25:00 4.6 C 94 % 3.72 C
67 23-02-2019 05:30:00 4.6 C 93 % 3.57 C
68 23-02-2019 05:35:00 4.7 C 93 % 3.67 C
69 23-02-2019 05:40:00 4.7 C 93 % 3.67 C
70 23-02-2019 05:45:00 4.7 C 92 % 3.51 C
71 23-02-2019 05:50:00 4.7 C 92 % 3.51 C
72 23-02-2019 05:55:00 4.8 C 91 % 3.46 C
73 23-02-2019 06:00:00 4.8 C 91 % 3.46 C
74 23-02-2019 06:05:00 4.8 C 91 % 3.46 C
75 23-02-2019 06:10:00 4.9 C 90 % 3.4 C
Sensor: Nr:Datum:Temp:Feuchte:Taupunkt:
Aussen-T/F 76 23-02-2019 06:15:00 4.8 C 91 % 3.46 C
77 23-02-2019 06:20:00 4.8 C 91 % 3.46 C
78 23-02-2019 06:25:00 4.8 C 89 % 3.14 C
79 23-02-2019 06:30:00 4.8 C 89 % 3.14 C
80 23-02-2019 06:35:00 4.8 C 89 % 3.14 C
81 23-02-2019 06:40:00 4.9 C 89 % 3.24 C
82 23-02-2019 06:45:00 4.9 C 90 % 3.4 C
83 23-02-2019 06:50:00 4.9 C 89 % 3.24 C
84 23-02-2019 06:55:00 4.8 C 89 % 3.14 C
85 23-02-2019 07:00:00 4.8 C 88 % 2.99 C
86 23-02-2019 07:05:00 4.8 C 88 % 2.99 C
87 23-02-2019 07:10:00 4.8 C 88 % 2.99 C
88 23-02-2019 07:15:00 4.7 C 87 % 2.73 C
89 23-02-2019 07:20:00 4.8 C 87 % 2.82 C
90 23-02-2019 07:25:00 4.8 C 87 % 2.82 C
91 23-02-2019 07:30:00 4.8 C 87 % 2.82 C
92 23-02-2019 07:35:00 4.8 C 86 % 2.66 C
93 23-02-2019 07:40:00 4.8 C 86 % 2.66 C
94 23-02-2019 07:45:00 4.8 C 87 % 2.82 C
95 23-02-2019 07:50:00 4.8 C 86 % 2.66 C
96 23-02-2019 07:55:00 4.8 C 86 % 2.66 C
97 23-02-2019 08:00:00 4.8 C 86 % 2.66 C
98 23-02-2019 08:05:00 4.8 C 87 % 2.82 C
99 23-02-2019 08:10:00 4.8 C 86 % 2.66 C
100 23-02-2019 08:15:00 4.8 C 85 % 2.5 C
Sensor: Nr:Datum:Temp:Feuchte:Taupunkt:
Aussen-T/F 101 23-02-2019 08:20:00 4.8 C 85 % 2.5 C
102 23-02-2019 08:25:00 4.8 C 85 % 2.5 C
103 23-02-2019 08:30:00 4.9 C 85 % 2.6 C
104 23-02-2019 08:35:00 4.9 C 85 % 2.6 C
105 23-02-2019 08:40:00 4.9 C 84 % 2.43 C
106 23-02-2019 08:45:00 4.9 C 84 % 2.43 C
107 23-02-2019 08:50:00 4.9 C 84 % 2.43 C
108 23-02-2019 08:55:00 4.9 C 84 % 2.43 C
109 23-02-2019 09:00:00 4.9 C 84 % 2.43 C
110 23-02-2019 09:05:00 4.9 C 83 % 2.26 C
111 23-02-2019 09:10:00 4.8 C 83 % 2.16 C
112 23-02-2019 09:15:00 4.8 C 83 % 2.16 C
113 23-02-2019 09:20:00 4.8 C 84 % 2.33 C
114 23-02-2019 09:25:00 4.8 C 84 % 2.33 C
115 23-02-2019 09:30:00 4.8 C 84 % 2.33 C
116 23-02-2019 09:35:00 4.7 C 84 % 2.23 C
117 23-02-2019 09:40:00 4.7 C 83 % 2.07 C
118 23-02-2019 09:45:00 4.7 C 83 % 2.07 C
119 23-02-2019 09:50:00 4.7 C 83 % 2.07 C
120 23-02-2019 09:55:00 4.7 C 83 % 2.07 C
121 23-02-2019 10:00:00 4.7 C 83 % 2.07 C
122 23-02-2019 10:05:00 4.7 C 83 % 2.07 C
123 23-02-2019 10:10:00 4.7 C 83 % 2.07 C
124 23-02-2019 10:15:00 4.8 C 83 % 2.16 C
125 23-02-2019 10:20:00 4.8 C 82 % 1.99 C
Sensor: Nr:Datum:Temp:Feuchte:Taupunkt:
Aussen-T/F 126 23-02-2019 10:25:00 4.8 C 82 % 1.99 C
127 23-02-2019 10:30:00 4.9 C 82 % 2.09 C
128 23-02-2019 10:35:00 5 C 81 % 2.02 C
129 23-02-2019 10:40:00 5.1 C 81 % 2.12 C
130 23-02-2019 10:45:00 5.2 C 81 % 2.21 C
131 23-02-2019 10:50:00 5.3 C 81 % 2.31 C
132 23-02-2019 10:55:00 5.4 C 80 % 2.23 C
133 23-02-2019 11:00:00 5.4 C 81 % 2.41 C
134 23-02-2019 11:05:00 5.6 C 81 % 2.6 C
135 23-02-2019 11:10:00 5.7 C 80 % 2.53 C
136 23-02-2019 11:15:00 5.8 C 80 % 2.62 C
137 23-02-2019 11:20:00 5.9 C 80 % 2.72 C
138 23-02-2019 11:25:00 6.1 C 80 % 2.92 C
139 23-02-2019 11:30:00 6.2 C 79 % 2.84 C
140 23-02-2019 11:35:00 6.3 C 79 % 2.93 C
141 23-02-2019 11:40:00 6.4 C 78 % 2.85 C
142 23-02-2019 11:45:00 6.6 C 77 % 2.86 C
143 23-02-2019 11:50:00 6.7 C 77 % 2.96 C
144 23-02-2019 11:55:00 6.8 C 76 % 2.87 C
145 23-02-2019 12:00:00 6.9 C 76 % 2.97 C
146 23-02-2019 12:05:00 7.1 C 75 % 2.98 C
147 23-02-2019 12:10:00 7.2 C 74 % 2.89 C
148 23-02-2019 12:15:00 7.3 C 74 % 2.98 C
149 23-02-2019 12:20:00 7.5 C 73 % 2.98 C
150 23-02-2019 12:25:00 7.7 C 72 % 2.98 C
Sensor: Nr:Datum:Temp:Feuchte:Taupunkt:
Aussen-T/F 151 23-02-2019 12:30:00 7.8 C 71 % 2.88 C
152 23-02-2019 12:35:00 7.8 C 71 % 2.88 C
153 23-02-2019 12:40:00 7.9 C 70 % 2.78 C
154 23-02-2019 12:45:00 8 C 71 % 3.07 C
155 23-02-2019 12:50:00 8.1 C 70 % 2.97 C
156 23-02-2019 12:55:00 8.2 C 71 % 3.26 C
157 23-02-2019 13:00:00 8.3 C 69 % 2.96 C
158 23-02-2019 13:05:00 8.4 C 68 % 2.85 C
159 23-02-2019 13:10:00 8.4 C 69 % 3.05 C
160 23-02-2019 13:15:00 8.7 C 68 % 3.13 C
161 23-02-2019 13:20:00 8.9 C 68 % 3.32 C
162 23-02-2019 13:25:00 9.1 C 67 % 3.31 C
163 23-02-2019 13:30:00 9.3 C 66 % 3.28 C
164 23-02-2019 13:35:00 9.3 C 66 % 3.28 C
165 23-02-2019 13:40:00 9.4 C 67 % 3.59 C
166 23-02-2019 13:45:00 9.6 C 65 % 3.35 C
167 23-02-2019 13:50:00 9.6 C 65 % 3.35 C
168 23-02-2019 13:55:00 9.7 C 64 % 3.23 C
169 23-02-2019 14:00:00 9.7 C 64 % 3.23 C
170 23-02-2019 14:05:00 9.7 C 63 % 3.01 C
171 23-02-2019 14:10:00 9.7 C 64 % 3.23 C
172 23-02-2019 14:15:00 9.8 C 63 % 3.1 C
173 23-02-2019 14:20:00 9.8 C 62 % 2.88 C
174 23-02-2019 14:25:00 9.9 C 62 % 2.97 C
175 23-02-2019 14:30:00 10 C 61 % 2.84 C
Sensor: Nr:Datum:Temp:Feuchte:Taupunkt:
Aussen-T/F 176 23-02-2019 14:35:00 10.1 C 60 % 2.7 C
177 23-02-2019 14:40:00 10.2 C 59 % 2.56 C
178 23-02-2019 14:45:00 10.3 C 54 % 1.41 C
179 23-02-2019 14:50:00 10.4 C 52 % 0.98 C
180 23-02-2019 14:55:00 10.6 C 49 % 0.35 C
181 23-02-2019 15:00:00 10.6 C 47 % -0.23 C
182 23-02-2019 15:05:00 10.7 C 46 % -0.43 C
183 23-02-2019 15:10:00 10.8 C 48 % 0.24 C
184 23-02-2019 15:15:00 10.8 C 46 % -0.34 C
185 23-02-2019 15:20:00 10.8 C 46 % -0.34 C
186 23-02-2019 15:25:00 10.8 C 46 % -0.34 C
187 23-02-2019 15:30:00 10.8 C 45 % -0.64 C
188 23-02-2019 15:35:00 10.8 C 42 % -1.58 C
189 23-02-2019 15:40:00 10.8 C 42 % -1.58 C
190 23-02-2019 15:45:00 10.8 C 43 % -1.26 C
191 23-02-2019 15:50:00 10.8 C 42 % -1.58 C
192 23-02-2019 15:55:00 10.9 C 44 % -0.86 C
193 23-02-2019 16:00:00 10.9 C 43 % -1.17 C
194 23-02-2019 16:05:00 10.9 C 43 % -1.17 C
195 23-02-2019 16:10:00 11.1 C 46 % -0.07 C
196 23-02-2019 16:15:00 11.1 C 52 % 1.63 C
197 23-02-2019 16:20:00 11 C 43 % -1.08 C
198 23-02-2019 16:25:00 10.9 C 42 % -1.49 C
199 23-02-2019 16:30:00 10.8 C 44 % -0.95 C
200 23-02-2019 16:35:00 10.8 C 47 % -0.04 C
Sensor: Nr:Datum:Temp:Feuchte:Taupunkt:
Aussen-T/F 201 23-02-2019 16:40:00 10.6 C 46 % -0.52 C
202 23-02-2019 16:45:00 10.4 C 52 % 0.98 C
203 23-02-2019 16:50:00 10.2 C 53 % 1.06 C
204 23-02-2019 16:55:00 9.9 C 54 % 1.04 C
205 23-02-2019 17:00:00 9.6 C 56 % 1.27 C
206 23-02-2019 17:05:00 9.3 C 59 % 1.71 C
207 23-02-2019 17:10:00 8.9 C 61 % 1.8 C
208 23-02-2019 17:15:00 8.7 C 62 % 1.84 C
209 23-02-2019 17:20:00 8.3 C 62 % 1.46 C
210 23-02-2019 17:25:00 8 C 64 % 1.62 C
211 23-02-2019 17:30:00 7.8 C 64 % 1.43 C
212 23-02-2019 17:35:00 7.5 C 65 % 1.36 C
213 23-02-2019 17:40:00 7.3 C 65 % 1.17 C
214 23-02-2019 17:45:00 7.1 C 66 % 1.19 C
215 23-02-2019 17:50:00 6.8 C 67 % 1.11 C
216 23-02-2019 17:55:00 6.6 C 67 % 0.92 C
217 23-02-2019 18:00:00 6.4 C 69 % 1.14 C
218 23-02-2019 18:05:00 6.2 C 70 % 1.15 C
219 23-02-2019 18:10:00 5.9 C 70 % 0.86 C
220 23-02-2019 18:15:00 5.7 C 70 % 0.67 C
221 23-02-2019 18:20:00 5.6 C 71 % 0.77 C
222 23-02-2019 18:25:00 5.4 C 71 % 0.58 C
223 23-02-2019 18:30:00 5.3 C 71 % 0.48 C
224 23-02-2019 18:35:00 5.2 C 71 % 0.38 C
225 23-02-2019 18:40:00 5.1 C 72 % 0.48 C
Sensor: Nr:Datum:Temp:Feuchte:Taupunkt:
Aussen-T/F 226 23-02-2019 18:45:00 5 C 72 % 0.38 C
227 23-02-2019 18:50:00 4.9 C 72 % 0.29 C
228 23-02-2019 18:55:00 4.8 C 72 % 0.19 C
229 23-02-2019 19:00:00 4.7 C 73 % 0.28 C
230 23-02-2019 19:05:00 4.7 C 73 % 0.28 C
231 23-02-2019 19:10:00 4.6 C 73 % 0.19 C
232 23-02-2019 19:15:00 4.6 C 74 % 0.38 C
233 23-02-2019 19:20:00 4.5 C 74 % 0.28 C
234 23-02-2019 19:25:00 4.4 C 73 % 0 C
235 23-02-2019 19:30:00 4.3 C 74 % 0.09 C
236 23-02-2019 19:35:00 4.3 C 75 % 0.27 C
237 23-02-2019 19:40:00 4.2 C 75 % 0.17 C
238 23-02-2019 19:45:00 4.1 C 74 % -0.11 C
239 23-02-2019 19:50:00 4.1 C 75 % 0.08 C
240 23-02-2019 19:55:00 3.9 C 75 % -0.12 C
241 23-02-2019 20:00:00 3.9 C 75 % -0.12 C
242 23-02-2019 20:05:00 3.8 C 75 % -0.21 C
243 23-02-2019 20:10:00 3.7 C 75 % -0.31 C
244 23-02-2019 20:15:00 3.7 C 75 % -0.31 C
245 23-02-2019 20:20:00 3.6 C 75 % -0.41 C
246 23-02-2019 20:25:00 3.5 C 76 % -0.32 C
247 23-02-2019 20:30:00 3.4 C 76 % -0.42 C
248 23-02-2019 20:35:00 3.3 C 77 % -0.34 C
249 23-02-2019 20:40:00 3.2 C 77 % -0.43 C
250 23-02-2019 20:45:00 3 C 77 % -0.63 C
Sensor: Nr:Datum:Temp:Feuchte:Taupunkt:
Aussen-T/F 251 23-02-2019 20:50:00 2.8 C 77 % -0.82 C
252 23-02-2019 20:55:00 2.7 C 78 % -0.74 C
253 23-02-2019 21:00:00 2.6 C 78 % -0.84 C
254 23-02-2019 21:05:00 2.4 C 79 % -0.86 C
255 23-02-2019 21:10:00 2.3 C 78 % -1.13 C
256 23-02-2019 21:15:00 2.2 C 78 % -1.23 C
257 23-02-2019 21:20:00 2.2 C 79 % -1.05 C
258 23-02-2019 21:25:00 2.1 C 79 % -1.15 C
259 23-02-2019 21:30:00 2.1 C 80 % -0.98 C
260 23-02-2019 21:35:00 2 C 79 % -1.25 C
261 23-02-2019 21:40:00 1.8 C 80 % -1.27 C
262 23-02-2019 21:45:00 1.7 C 80 % -1.37 C
263 23-02-2019 21:50:00 1.6 C 81 % -1.3 C
264 23-02-2019 21:55:00 1.4 C 81 % -1.49 C
265 23-02-2019 22:00:00 1.3 C 81 % -1.59 C
266 23-02-2019 22:05:00 1.2 C 82 % -1.52 C
267 23-02-2019 22:10:00 1.2 C 82 % -1.52 C
268 23-02-2019 22:15:00 1.1 C 83 % -1.46 C
269 23-02-2019 22:20:00 1.1 C 84 % -1.29 C
270 23-02-2019 22:25:00 1.1 C 84 % -1.29 C
271 23-02-2019 22:30:00 1.1 C 83 % -1.46 C
272 23-02-2019 22:35:00 0.9 C 83 % -1.65 C
273 23-02-2019 22:40:00 0.8 C 83 % -1.75 C
274 23-02-2019 22:45:00 0.7 C 83 % -1.85 C
275 23-02-2019 22:50:00 0.7 C 83 % -1.85 C
Sensor: Nr:Datum:Temp:Feuchte:Taupunkt:
Aussen-T/F 276 23-02-2019 22:55:00 0.6 C 83 % -1.95 C
277 23-02-2019 23:00:00 0.6 C 84 % -1.78 C
278 23-02-2019 23:05:00 0.6 C 84 % -1.78 C
279 23-02-2019 23:10:00 0.5 C 83 % -2.04 C
280 23-02-2019 23:15:00 0.4 C 83 % -2.14 C
281 23-02-2019 23:20:00 0.4 C 84 % -1.98 C
282 23-02-2019 23:25:00 0.5 C 83 % -2.04 C
283 23-02-2019 23:30:00 0.4 C 83 % -2.14 C
284 23-02-2019 23:35:00 0.5 C 83 % -2.04 C
285 23-02-2019 23:40:00 0.4 C 83 % -2.14 C
286 23-02-2019 23:45:00 0.4 C 84 % -1.98 C
287 23-02-2019 23:50:00 0.4 C 84 % -1.98 C
288 23-02-2019 23:55:00 0.4 C 84 % -1.98 C

Legende:
   Min
   Max


Maximal/Minimal-Werte vom 23.02.2019 - 23.02.2019

Sensor Min Max Avg
Temp
(Aussen-T/F)
0.4 °C
23-02-2019  23:15:00
11.1 °C
23-02-2019  16:10:00
5.41 °C
Feuchte
(Aussen-T/F)
42 %
23-02-2019  15:35:00
95 %
23-02-2019  03:05:00
78.72 %
Taupunkt
(Aussen-T/F)
-2.14 C
23-02-2019  23:15:00
4.5 C
23-02-2019  00:00:00
1.73 C

Die Daten stammen von einer Davis Vantage Pro 2 Wetter-Station und werden unter Linux mit der Software wview2wettercgi und aufbereitet. Alle Angaben erfolgen ohne Gewähr für ihre Vollständigkeit oder Richtigkeit.
Kontakt: Rainer Krienke krienke@uni-koblenz.de . Meine Webseiten an der Uni Koblenz oder privat.
Version: $Revision: 0.78 $